Weather reports worldwide

Advertisment
Trapani/Birgi, Italy (16429): temperature & dewpoint: 05.12.2019 09:00:00 - 11.12.2019 09:00:00 (CET)Trapani/Birgi, Italy (16429): wind speed: 05.12.2019 09:00:00 - 11.12.2019 09:00:00 (CET)Trapani/Birgi, Italy (16429): wind direction: 05.12.2019 09:00:00 - 11.12.2019 09:00:00 (CET)Trapani/Birgi, Italy (16429): reduced air pressure: 05.12.2019 09:00:00 - 11.12.2019 09:00:00 (CET)Trapani/Birgi, Italy (16429): visibility: 05.12.2019 09:00:00 - 11.12.2019 09:00:00 (CET)Trapani/Birgi, Italy (16429): sunshine duration: 05.12.2019 09:00:00 - 11.12.2019 09:00:00 (CET)
Date & Time tt [°C] td [°C] ff [km/h] ff [kn] dd ppp [hPa] vv [km] sd [min]
11.12.2019 09:00:00 15,0 9,1 26 14 N 1011,2 18 42
11.12.2019 08:00:00 14,0 8,4 28 15 N 1010,1 18 -
11.12.2019 07:00:00 13,0 7,7 24 13 N 1010,1 15 0
11.12.2019 06:00:00 13,4 9,7 29 16 NNE 1009,2 12 -
11.12.2019 05:00:00 11,0 7,7 15 8 NNE 1009,8 12 -
11.12.2019 04:00:00 11,8 9,4 9 5 N 1010,0 12 -
11.12.2019 03:00:00 12,0 9,5 8 4 NNE 1010,0 10 -
11.12.2019 02:00:00 11,8 9,2 5 3 NW 1009,4 12 -
11.12.2019 01:00:00 13,0 9,6 24 13 N 1009,1 12 -
11.12.2019 00:00:00 10,8 8,2 13 7 NNW 1009,2 10 -
10.12.2019 23:00:00 9,8 7,4 8 4 NNE 1008,9 12 -
10.12.2019 22:00:00 10,0 7,6 4 2 N 1008,9 12 -
10.12.2019 21:00:00 11,0 7,9 4 2 N 1008,2 12 -
10.12.2019 20:00:00 10,4 8,0 2 1 NNE 1008,1 12 -
10.12.2019 19:00:00 12,0 9,7 11 6 NNE 1007,1 15 0
10.12.2019 18:00:00 13,6 10,2 22 12 NNW 1007,0 15 0
10.12.2019 17:00:00 14,0 10,6 9 5 N 1006,4 15 0
10.12.2019 16:00:00 15,0 8,9 9 5 NW 1006,1 15 6
10.12.2019 15:00:00 15,0 11,0 16 9 NW 1006,1 15 42
10.12.2019 14:00:00 15,0 10,0 9 5 WNW 1006,2 15 42
10.12.2019 13:00:00 14,8 9,8 15 8 WNW 1007,1 15 24
10.12.2019 12:00:00 15,0 10,2 22 12 W 1007,6 15 18
10.12.2019 11:00:00 14,0 9,4 26 14 WNW 1008,3 15 18
10.12.2019 10:00:00 12,8 8,5 22 12 WNW 1008,6 15 0
10.12.2019 09:00:00 14,0 8,6 35 19 WNW 1009,2 16 0
10.12.2019 08:00:00 14,0 9,0 39 21 WNW 1008,9 15 0
10.12.2019 07:00:00 14,0 8,8 34 18 WNW 1008,9 15 0
10.12.2019 06:00:00 14,0 7,8 34 18 WNW 1008,9 12 -
10.12.2019 05:00:00 14,0 9,2 29 16 WNW 1009,1 12 -
10.12.2019 04:00:00 14,0 9,0 31 17 WNW 1010,0 12 -
10.12.2019 03:00:00 14,8 9,6 37 20 WNW 1010,0 12 -
10.12.2019 02:00:00 14,8 10,0 31 17 WNW 1010,5 12 -
10.12.2019 01:00:00 14,8 9,4 31 17 W 1012,1 12 -
10.12.2019 00:00:00 14,8 11,0 31 17 W 1012,2 12 -
09.12.2019 23:00:00 14,8 10,0 35 19 W 1012,1 12 -
09.12.2019 22:00:00 14,8 11,2 16 9 WNW 1012,2 12 -
09.12.2019 21:00:00 15,0 11,8 22 12 WNW 1013,1 12 -
09.12.2019 20:00:00 15,0 11,6 22 12 WNW 1013,1 12 -
09.12.2019 19:00:00 15,0 12,5 24 13 WNW 1013,1 12 -
09.12.2019 18:00:00 15,2 12,7 16 9 WNW 1013,1 12 -
09.12.2019 17:00:00 15,4 13,6 13 7 NW 1013,1 20 0
09.12.2019 16:00:00 16,0 13,5 16 9 NW 1013,0 20 60
09.12.2019 15:00:00 16,0 13,1 26 14 WNW 1013,3 20 30
09.12.2019 14:00:00 16,4 13,5 24 13 NW 1013,9 20 60
09.12.2019 13:00:00 17,4 14,9 24 13 NW 1014,3 20 60
09.12.2019 12:00:00 16,2 14,4 11 6 WNW 1015,1 15 60
09.12.2019 11:00:00 16,2 14,5 4 2 N 1015,9 15 54
09.12.2019 10:00:00 14,6 13,0 5 3 SSE 1016,0 15 18
09.12.2019 09:00:00 12,8 11,5 9 5 ESE 1016,0 15 0
09.12.2019 08:00:00 12,2 10,6 11 6 SE 1016,0 15 0
09.12.2019 07:00:00 12,4 9,6 8 4 SSE 1016,0 12 -
09.12.2019 06:00:00 12,0 9,5 5 3 ESE 1016,1 12 -
09.12.2019 05:00:00 12,2 9,6 2 1 ENE 1016,2 12 -
09.12.2019 04:00:00 12,2 9,6 2 1 E 1016,5 12 -
09.12.2019 03:00:00 12,0 9,5 5 3 SE 1017,1 12 -
09.12.2019 02:00:00 12,0 9,4 9 5 E 1016,9 12 -
09.12.2019 01:00:00 12,0 9,5 8 4 E 1017,8 12 -
09.12.2019 00:00:00 12,0 9,4 5 3 ENE 1018,5 12 -
08.12.2019 23:00:00 12,0 9,2 4 2 ESE 1018,7 12 -
08.12.2019 22:00:00 12,0 9,4 8 4 E 1018,5 10 -
08.12.2019 21:00:00 12,4 9,8 4 2 SW 1018,9 12 -
08.12.2019 20:00:00 12,8 10,2 11 6 ENE 1018,3 12 -
08.12.2019 19:00:00 13,0 10,5 5 3 NE 1019,0 15 0
08.12.2019 18:00:00 13,0 10,5 5 3 ENE 1019,0 15 0
08.12.2019 17:00:00 15,0 12,7 5 3 NW 1019,3 15 0
08.12.2019 16:00:00 17,0 15,4 9 5 NNW 1019,4 15 42
08.12.2019 15:00:00 17,6 16,0 8 4 NW 1019,3 15 36
08.12.2019 14:00:00 17,4 15,0 2 1 SE 1019,9 15 0
08.12.2019 13:00:00 17,0 15,5 11 6 NE 1019,6 15 0
08.12.2019 12:00:00 17,0 16,2 5 3 S 1021,9 15 36
08.12.2019 11:00:00 17,0 15,7 9 5 S 1022,2 15 60
08.12.2019 10:00:00 15,0 13,4 9 5 ESE 1022,3 15 60
08.12.2019 09:00:00 12,4 10,0 9 5 E 1022,0 15 12
08.12.2019 08:00:00 10,0 7,6 9 5 SE 1022,1 15 0
08.12.2019 07:00:00 10,0 7,8 11 6 ESE 1021,3 12 -
08.12.2019 06:00:00 10,0 7,9 11 6 ESE 1021,3 12 -
08.12.2019 05:00:00 10,0 7,9 9 5 ESE 1021,4 12 -
08.12.2019 04:00:00 10,0 7,8 9 5 ESE 1021,8 12 -
08.12.2019 03:00:00 10,0 7,8 8 4 ESE 1021,7 12 -
08.12.2019 02:00:00 10,0 7,9 8 4 ESE 1021,7 12 -
08.12.2019 01:00:00 10,0 8,1 11 6 SE 1022,2 12 -
08.12.2019 00:00:00 11,2 9,3 11 6 ESE 1022,2 12 -
07.12.2019 23:00:00 12,0 9,7 9 5 E 1022,2 12 -
07.12.2019 22:00:00 12,4 10,3 11 6 SE 1022,2 12 -
07.12.2019 21:00:00 12,4 10,5 9 5 SE 1022,2 12 -
07.12.2019 20:00:00 13,0 11,1 13 7 SE 1022,2 12 -
07.12.2019 19:00:00 13,4 10,8 11 6 SE 1022,1 14 -
07.12.2019 18:00:00 14,0 12,2 9 5 SE 1021,9 20 0
07.12.2019 17:00:00 15,0 13,2 9 5 S 1021,5 22 30
07.12.2019 16:00:00 17,2 15,4 13 7 SSW 1021,1 22 -
07.12.2019 15:00:00 18,0 16,0 11 6 SSW 1021,1 22 60
07.12.2019 14:00:00 18,4 15,3 16 9 SSW 1021,7 22 60
07.12.2019 13:00:00 18,2 15,5 15 8 SSW 1021,7 22 60
07.12.2019 12:00:00 18,0 14,5 13 7 S 1022,4 20 60
07.12.2019 11:00:00 17,2 14,7 16 9 S 1023,4 20 -
07.12.2019 10:00:00 16,2 14,0 9 5 SE 1023,5 10 60
07.12.2019 09:00:00 13,8 11,7 13 7 SE 1022,9 14 24
07.12.2019 08:00:00 11,4 9,5 9 5 ESE 1022,6 14 0
07.12.2019 07:00:00 11,8 9,9 11 6 ESE 1022,4 15 0
07.12.2019 06:00:00 11,2 7,5 9 5 ESE 1022,2 12 -
07.12.2019 05:00:00 10,6 6,9 13 7 ESE 1022,3 12 -
07.12.2019 04:00:00 10,4 7,1 13 7 SE 1022,3 12 -
07.12.2019 03:00:00 10,8 7,5 8 4 ESE 1022,6 12 -
07.12.2019 02:00:00 11,0 7,3 9 5 ESE 1022,9 12 -
07.12.2019 01:00:00 11,0 7,3 8 4 E 1022,9 12 -
07.12.2019 00:00:00 10,4 6,7 8 4 ESE 1023,2 12 -
06.12.2019 23:00:00 11,0 7,3 9 5 E 1023,2 12 -
06.12.2019 22:00:00 11,2 7,5 13 7 SE 1023,1 12 -
06.12.2019 21:00:00 11,6 7,9 8 4 ESE 1023,1 12 -
06.12.2019 20:00:00 12,8 9,4 9 5 ESE 1023,2 12 -
06.12.2019 19:00:00 14,0 10,6 8 4 ESE 1022,9 14 -
06.12.2019 18:00:00 14,4 11,0 5 3 ESE 1022,6 14 -
06.12.2019 17:00:00 15,0 11,8 5 3 SSW 1022,6 16 -
06.12.2019 16:00:00 16,6 13,1 9 5 WSW 1022,6 16 36
06.12.2019 15:00:00 17,0 13,5 8 4 WSW 1022,9 16 30
06.12.2019 14:00:00 17,2 12,7 9 5 SW 1023,1 16 54
06.12.2019 13:00:00 17,2 13,5 11 6 WSW 1023,5 16 60
06.12.2019 12:00:00 17,2 15,0 8 4 WSW 1023,8 16 60
06.12.2019 11:00:00 16,2 15,1 5 3 WSW 1024,1 16 60
06.12.2019 10:00:00 15,0 14,0 8 4 SE 1024,2 16 24
06.12.2019 09:00:00 12,0 11,2 8 4 ESE 1024,0 12 -
06.12.2019 08:00:00 10,6 9,8 8 4 ESE 1023,2 12 -
06.12.2019 07:00:00 10,8 8,7 8 4 ESE 1023,0 12 0
06.12.2019 06:00:00 11,0 8,9 5 3 ESE 1022,8 15 -
06.12.2019 05:00:00 11,0 8,9 8 4 ESE 1022,7 15 -
06.12.2019 04:00:00 11,0 8,9 9 5 ESE 1022,7 15 -
06.12.2019 03:00:00 11,0 8,9 5 3 ESE 1022,7 15 -
06.12.2019 02:00:00 11,0 8,9 5 3 ESE 1022,6 15 -
06.12.2019 01:00:00 11,0 8,9 4 2 SSE 1022,8 15 -
06.12.2019 00:00:00 13,0 10,9 8 4 ESE 1022,8 18 -
05.12.2019 23:00:00 13,0 10,9 8 4 SE 1023,0 18 -
05.12.2019 22:00:00 13,0 10,9 5 3 SSE 1022,9 18 -
05.12.2019 21:00:00 13,2 10,9 8 4 S 1022,5 20 -
05.12.2019 20:00:00 14,0 11,7 4 2 SSE 1022,2 20 -
05.12.2019 19:00:00 14,0 11,5 8 4 NNE 1021,9 12 -
05.12.2019 18:00:00 15,2 13,2 4 2 SW 1021,2 12 -
05.12.2019 17:00:00 16,6 15,0 8 4 SSW 1020,9 18 24
05.12.2019 16:00:00 18,8 16,8 13 7 S 1020,2 20 60
05.12.2019 15:00:00 19,0 16,4 15 8 S 1020,0 20 60
05.12.2019 14:00:00 20,0 16,0 16 9 S - 10 -
05.12.2019 13:00:00 19,2 15,7 16 9 SSE 1020,0 20 60
05.12.2019 12:00:00 19,0 15,5 21 11 S 1020,1 10 60
05.12.2019 11:00:00 18,6 15,3 21 11 SSE 1020,1 20 60
05.12.2019 10:00:00 16,4 13,5 16 9 ESE 1020,0 25 60
05.12.2019 09:00:00 15,0 12,5 13 7 ESE 1019,1 15 12

tt = temperature
td = dewpoint
ff = wind speed
dd = wind direction
ppp = reduced air pressure
vv = visibility
sd = sunshine duration

Next stations